Theta_e
326 328 328 328 328 328 328 329 329 329 329 329 329 330 331 331 330 330 330 329 330 330 329 328 327 326 326 325 325 326 325 322 319 315 315 317 321 322 323 325 327 333 331 319 315 312 307 308 308 311 309 310 311 309 315 311 311 312 305 303 301 303 300 303 302 303 305 304 304 304 306 306 303 305 306 307 306 307 307 307 312 313 315 323 321 328 336 335
325 327 328 328 328 328 328 328 329 328 328 329 329 330 330 330 330 329 328 329 329 329 329 329 328 327 326 325 325 324 323 318 315 315 316 325 326 322 323 325 325 335 329 315 312 311 307 307 309 309 307 305 317 307 311 309 311 307 305 304 301 304 304 306 305 305 303 304 305 306 307 307 305 306 306 303 303 304 304 306 308 309 314 318 321 329 333 332
325 326 328 328 328 328 328 328 328 328 328 328 329 329 329 329 328 328 327 328 328 328 328 328 328 327 325 325 324 324 322 313 312 312 317 329 324 325 323 324 327 333 320 313 312 312 308 309 309 307 307 306 309 308 310 309 309 308 308 302 304 307 304 306 306 304 306 307 305 305 306 306 306 306 307 304 303 304 302 303 305 307 311 314 321 329 330 332
325 326 327 327 327 327 328 328 328 328 327 327 328 329 329 328 328 328 327 327 327 326 327 327 327 327 325 324 323 323 318 313 309 311 314 326 329 328 328 325 330 335 321 316 314 313 312 311 310 308 305 304 307 310 306 310 306 308 306 303 305 306 304 304 306 305 304 306 305 305 305 304 305 307 305 304 303 302 304 307 306 305 309 315 322 327 329 330
325 326 327 326 326 326 328 327 327 327 327 327 328 328 328 328 328 328 327 327 326 326 326 326 327 327 325 322 322 322 313 308 309 312 311 329 336 333 331 331 333 330 321 316 314 312 311 310 309 307 306 302 305 306 306 309 310 308 304 302 304 305 303 303 304 303 304 303 306 305 302 303 306 305 305 305 302 301 304 307 308 309 309 318 322 327 328 329
325 326 326 326 326 326 327 327 327 326 327 326 327 327 327 327 327 327 327 326 326 326 325 326 327 326 325 322 320 319 313 295 313 312 328 330 332 335 331 332 335 328 320 314 310 310 309 308 307 303 303 302 302 301 305 308 307 302 303 303 303 303 303 303 304 301 303 304 304 303 305 306 304 304 306 305 304 304 307 307 307 308 315 321 326 328 328 329
324 324 326 325 325 325 326 326 326 326 326 326 327 327 327 327 326 326 326 326 326 325 325 325 326 327 325 322 318 313 310 310 308 319 324 335 334 332 332 336 332 320 315 310 309 308 307 306 306 303 303 302 303 303 306 305 306 305 302 303 301 303 302 302 302 301 302 304 304 305 306 304 304 301 304 303 306 306 306 308 306 308 320 321 324 327 327 329
323 324 324 323 324 325 326 326 325 326 326 325 326 326 326 326 326 325 325 325 325 325 325 325 325 326 322 315 308 304 305 303 308 319 330 336 334 333 331 325 319 316 311 309 308 306 307 305 303 305 302 301 303 304 306 305 305 303 301 303 301 302 301 301 302 301 302 302 303 304 303 303 304 303 302 303 306 307 306 308 309 309 317 319 322 323 326 327
323 323 323 323 324 324 325 325 326 325 325 325 325 326 325 325 325 325 325 325 325 324 324 325 325 324 322 314 305 301 300 312 316 325 332 324 320 319 320 316 315 312 311 310 309 308 307 305 305 305 301 302 305 303 304 303 300 305 303 303 302 301 301 301 301 302 302 303 303 303 303 302 302 302 302 305 306 306 306 308 311 311 313 316 319 321 323 325
322 322 323 323 323 324 325 324 325 325 325 325 324 325 325 324 324 324 324 324 324 323 323 325 325 323 317 308 307 298 307 311 321 328 327 315 311 313 313 313 311 312 309 308 308 307 306 306 305 308 307 304 305 303 305 304 303 306 303 303 302 301 301 302 301 301 302 303 302 303 302 301 302 301 300 306 304 304 305 307 311 311 311 313 316 320 322 324
322 323 323 322 322 323 324 324 324 325 324 324 324 324 324 323 323 323 323 323 323 323 324 324 324 320 312 311 302 299 312 316 314 322 321 314 311 310 309 309 309 309 309 309 307 308 308 308 308 308 304 303 305 302 303 302 306 305 303 302 301 301 302 301 302 301 303 301 302 304 302 302 302 301 301 303 303 305 305 306 310 309 310 312 314 318 321 323
322 323 323 322 322 323 324 323 323 324 324 323 323 323 323 322 322 322 322 322 322 323 323 324 323 319 313 307 303 305 309 314 314 318 318 313 309 310 313 309 308 309 308 305 306 309 309 309 309 306 299 306 300 304 302 303 305 304 305 300 300 301 301 302 301 301 302 301 302 304 301 299 300 299 304 302 303 304 305 307 308 309 311 315 316 318 321 322
321 322 322 322 322 322 323 323 323 323 323 322 323 322 322 322 321 321 322 321 322 322 323 323 322 319 311 299 304 309 314 312 312 315 315 314 310 311 312 312 310 310 310 307 306 309 312 308 308 305 304 304 303 299 303 305 304 305 304 302 299 300 299 300 301 301 301 300 301 301 294 298 301 303 303 303 303 303 304 305 307 308 309 312 316 319 321 322
320 321 321 321 321 322 323 323 322 323 322 322 321 321 321 321 321 321 320 319 321 322 322 323 321 316 311 300 309 313 314 313 313 313 312 311 309 311 309 311 311 310 314 309 309 310 308 308 307 306 307 303 301 304 303 302 303 300 301 302 298 296 297 301 302 301 300 301 301 302 295 298 302 303 303 302 303 303 303 304 305 307 309 310 313 315 318 322
320 320 320 321 320 321 321 321 322 321 321 321 321 320 320 320 320 320 320 319 320 321 321 322 320 312 301 300 309 314 321 313 310 310 312 308 308 308 308 309 309 311 309 309 307 306 307 307 307 302 301 303 304 301 299 300 301 302 297 295 299 297 297 299 301 301 299 300 303 300 296 298 300 300 301 303 303 303 303 304 305 305 306 308 310 312 314 317
320 320 320 321 320 320 320 320 320 321 321 320 320 319 319 320 319 319 319 318 320 322 322 315 313 312 300 296 307 320 312 308 308 312 312 312 312 307 309 308 309 308 308 305 306 305 307 307 303 303 302 303 301 300 298 297 298 300 297 296 296 297 297 297 299 301 301 301 300 300 296 299 299 301 301 303 304 303 303 303 304 305 305 306 306 308 310 312
319 319 320 320 320 320 320 319 319 319 319 319 320 319 319 319 320 320 319 320 320 320 316 309 312 312 294 305 312 307 306 310 312 313 311 312 312 311 308 306 305 306 307 305 306 306 306 303 302 302 304 300 301 300 295 293 293 295 299 296 299 295 297 295 298 301 303 301 298 299 297 298 301 302 301 302 304 303 303 303 304 305 305 306 307 306 307 308
319 319 319 319 320 320 319 319 319 319 319 319 318 319 318 319 320 319 319 318 319 318 317 311 312 301 295 303 301 303 311 307 312 311 312 310 311 309 308 306 306 305 305 303 305 302 304 300 302 297 299 299 299 298 293 289 293 293 294 296 296 297 298 297 296 299 299 299 299 299 297 298 301 303 302 303 304 303 303 303 304 305 305 306 306 307 306 307
319 319 319 319 319 319 319 319 319 319 319 319 319 320 320 320 318 315 312 313 307 301 296 299 302 290 290 297 305 306 310 310 311 310 305 308 308 310 309 309 307 303 300 299 299 302 302 301 301 297 293 295 296 297 296 297 297 296 296 296 296 294 294 296 297 298 300 297 296 298 297 298 300 302 303 304 303 303 303 304 304 305 305 306 306 307 307 308
319 319 319 319 319 318 318 318 319 319 319 317 315 314 313 306 306 305 311 310 302 300 299 301 304 300 297 301 304 307 310 314 305 309 309 312 307 306 305 306 306 303 300 296 299 300 304 296 292 293 295 296 299 300 299 300 300 298 297 297 295 295 296 297 297 298 298 298 297 298 299 299 300 302 303 305 305 303 303 303 304 304 305 305 306 307 308 308
318 319 319 318 318 318 318 319 319 319 318 315 313 309 300 301 296 294 303 305 304 302 301 303 303 300 301 305 305 305 303 304 308 306 308 312 310 305 302 303 301 297 298 300 298 303 302 295 294 297 298 298 299 299 298 299 299 298 296 296 295 296 294 296 297 298 299 296 297 299 298 299 300 302 303 304 304 302 303 303 303 304 305 306 307 308 309 309
318 319 318 318 318 318 319 318 319 318 318 315 313 307 305 307 308 312 305 295 301 305 303 304 305 304 306 306 308 306 309 301 303 306 311 309 305 301 301 301 297 295 299 300 300 297 294 293 297 299 300 300 299 298 298 297 297 298 296 296 296 296 296 295 296 297 298 295 296 298 297 298 300 301 303 303 303 304 305 305 305 305 305 306 307 309 309 310
318 318 318 318 318 319 319 318 317 317 315 312 310 310 305 312 314 312 307 300 297 303 302 301 300 302 303 306 307 307 302 299 298 304 305 308 303 302 301 299 297 296 299 299 294 294 291 294 298 300 300 298 298 297 297 297 298 296 296 294 293 297 294 291 295 297 296 296 296 297 296 298 300 302 302 304 304 305 306 304 305 305 305 306 307 307 308 308
317 317 318 317 318 318 319 318 318 315 312 312 312 310 314 315 316 313 304 296 294 298 301 302 304 304 302 302 307 304 301 300 303 300 309 307 301 305 301 299 296 298 295 297 297 294 293 296 294 299 299 299 296 297 296 295 294 299 298 296 294 294 295 298 294 296 296 296 295 296 295 295 298 297 299 302 300 300 302 301 301 302 304 305 306 304 304 303
317 317 317 317 317 318 317 317 311 310 312 312 312 316 316 317 316 312 303 296 296 296 303 306 310 308 305 309 306 301 302 303 304 306 307 306 303 300 300 302 299 295 296 297 297 296 294 294 295 296 298 297 297 295 296 297 293 296 300 298 297 297 295 296 295 294 293 293 296 295 289 290 297 298 298 301 299 299 300 300 301 302 303 304 303 305 308 308
316 316 317 316 317 317 318 309 308 311 310 307 312 317 317 319 315 312 302 292 287 294 299 293 309 298 312 303 305 302 304 298 303 305 308 307 308 303 300 298 300 294 296 296 295 298 294 291 294 296 296 298 296 295 298 298 294 293 293 299 297 297 297 296 295 295 290 288 293 294 289 287 296 297 298 298 298 299 299 300 301 303 304 305 307 308 308 309
316 316 316 316 317 316 309 302 311 311 304 308 315 318 317 316 317 311 298 288 285 295 291 298 298 301 309 303 304 304 289 294 303 305 305 307 303 305 298 297 297 299 299 299 295 291 293 292 294 297 296 297 295 293 299 298 296 293 296 298 298 297 296 296 296 296 295 295 294 293 295 289 290 296 299 298 297 298 298 300 302 303 304 304 305 306 307 309
316 316 316 316 316 314 309 310 308 305 306 313 317 317 316 316 314 305 296 279 280 299 292 294 297 307 305 301 305 298 299 303 297 300 304 308 304 301 300 297 296 296 296 297 287 296 293 292 295 295 296 295 294 298 301 299 296 295 295 300 297 297 297 298 296 295 296 295 290 292 297 288 288 295 297 297 295 296 297 299 302 303 303 304 305 306 307 306
316 315 315 316 315 314 314 310 308 306 313 314 317 317 316 314 308 297 289 279 294 292 309 293 308 304 301 302 299 300 300 302 296 300 305 304 305 302 297 299 298 296 297 298 292 293 296 295 296 298 296 293 295 294 298 300 296 293 297 300 300 302 300 299 296 296 294 290 286 292 294 287 288 296 296 297 296 296 297 300 301 302 303 304 304 305 305 306
315 315 315 315 314 312 312 312 309 313 315 315 317 316 315 309 298 289 283 277 296 286 296 296 297 295 299 295 296 299 297 298 300 300 302 300 302 303 300 305 299 297 297 299 297 294 295 297 296 297 295 296 293 294 297 298 298 298 300 298 297 298 297 296 297 294 291 285 287 290 290 291 285 294 296 295 296 297 299 300 301 301 302 303 304 305 306 306
315 315 314 315 309 311 311 306 310 316 315 316 315 313 308 301 291 285 277 288 295 293 296 294 294 299 295 294 291 298 298 298 298 299 296 300 297 300 300 299 303 299 296 297 295 296 295 295 297 296 295 296 298 295 298 298 299 301 298 295 295 293 295 293 291 292 286 284 287 288 290 291 284 290 297 297 296 298 300 299 299 300 301 302 303 304 304 305
314 315 315 313 313 314 306 305 313 316 314 314 312 307 299 286 292 283 281 298 286 289 291 291 297 296 295 296 295 295 294 297 298 297 295 295 295 294 295 292 295 288 288 290 290 295 293 295 297 296 296 295 299 295 294 297 298 298 297 295 289 286 287 284 287 283 284 284 286 288 290 287 287 293 296 296 297 297 301 301 301 301 301 302 303 304 305 306
314 314 314 314 312 312 312 315 315 315 314 313 309 303 292 285 277 287 288 290 287 293 291 298 295 295 295 294 293 296 300 293 298 297 298 297 295 295 299 297 298 295 286 292 292 292 292 297 297 297 297 296 298 292 290 291 295 296 293 291 287 284 282 281 284 286 286 284 286 287 290 285 292 294 298 298 298 300 300 300 301 302 302 302 303 304 305 307
314 314 312 312 312 315 314 315 315 313 311 311 303 296 291 282 281 294 290 291 293 296 296 295 295 296 295 291 294 297 292 297 296 296 297 295 295 292 295 296 298 297 297 293 289 289 285 285 292 295 291 299 296 297 296 294 294 295 299 294 290 288 284 280 284 281 282 285 284 288 285 286 286 290 295 296 298 298 297 298 299 300 302 302 303 304 305 306
314 313 314 313 314 313 313 315 313 313 311 305 297 291 282 282 288 287 289 292 293 295 294 298 294 293 291 295 295 297 296 292 297 295 295 293 291 293 292 294 296 299 299 290 294 291 290 289 294 296 296 296 297 298 297 299 295 298 298 299 292 290 294 286 286 286 285 284 283 283 285 291 293 296 297 297 297 297 297 297 298 299 300 302 302 303 304 304
311 312 314 310 311 312 313 314 314 313 307 300 292 287 284 287 286 294 291 298 295 293 294 295 295 290 290 291 294 295 297 295 294 295 294 294 295 293 296 296 295 297 295 291 294 287 290 287 294 297 296 295 296 295 296 298 288 294 294 289 292 296 292 285 284 285 283 285 284 289 288 292 296 297 298 296 295 296 296 296 297 299 301 303 303 304 304 305
309 311 307 309 311 313 313 315 314 311 306 298 290 285 289 294 300 296 298 295 295 297 294 288 289 289 288 288 290 292 293 298 294 294 289 296 293 296 295 296 299 297 299 297 292 298 289 289 293 295 293 294 295 293 297 295 296 295 287 293 296 298 296 290 284 284 284 282 284 288 285 288 288 286 296 295 294 295 295 296 297 299 301 302 303 304 304 305
307 308 308 308 311 313 313 315 313 309 303 296 288 291 295 293 296 299 300 298 298 297 293 290 291 295 289 289 288 291 294 292 291 294 291 293 289 300 296 295 299 298 298 297 294 293 297 285 290 291 294 294 297 297 294 297 296 295 293 303 292 286 285 288 287 280 280 280 283 285 287 288 290 291 292 293 294 294 295 297 297 298 300 302 303 304 305 305
309 306 299 306 312 313 313 314 311 304 298 292 289 289 295 299 299 299 299 299 300 296 292 293 291 292 293 290 292 293 293 289 292 291 290 292 288 297 296 298 296 298 298 297 295 296 298 288 286 293 293 294 295 295 287 291 297 297 296 293 295 292 289 286 286 287 286 282 282 283 284 284 293 293 295 294 296 296 296 296 297 299 300 302 302 303 303 303
304 300 297 307 312 314 314 313 306 301 295 288 290 290 300 296 295 300 300 299 297 295 294 294 295 291 293 293 294 290 293 293 291 292 293 294 291 297 296 300 296 296 297 295 298 300 291 295 285 290 294 294 288 292 291 293 288 289 291 289 292 294 294 292 294 287 285 284 284 283 282 287 294 297 296 296 297 298 297 296 298 299 301 303 303 303 303 305
307 300 297 308 312 314 313 307 299 294 292 295 298 296 297 296 297 298 300 300 299 299 298 297 295 291 293 293 291 295 292 293 292 291 293 293 292 288 296 298 299 294 296 298 297 298 289 290 287 288 288 287 291 293 292 293 296 293 291 289 291 289 286 284 283 291 285 285 283 283 282 289 295 294 298 297 298 299 299 299 299 300 302 302 303 303 305 305
301 293 296 308 312 312 306 296 296 299 295 292 291 296 296 300 297 297 299 299 302 297 299 300 300 297 295 294 294 293 291 292 292 292 293 292 295 294 297 300 298 297 295 291 294 298 296 295 289 286 288 290 292 293 292 292 291 292 292 292 295 293 292 287 282 285 286 286 285 286 282 286 294 294 295 296 294 295 299 300 300 301 302 303 304 305 306 305
300 294 303 307 311 309 302 295 298 297 295 296 300 299 301 299 298 299 297 301 297 300 297 297 296 296 297 296 295 293 293 290 293 291 294 295 295 295 297 298 299 297 298 293 297 293 294 290 287 287 289 291 293 293 293 291 293 293 293 294 293 291 292 291 289 288 286 285 284 285 282 288 296 295 293 293 293 293 294 297 301 301 303 303 304 305 304 303
297 296 298 307 310 308 299 289 290 292 294 297 298 298 301 299 298 296 297 298 298 296 296 297 296 298 295 299 296 292 295 287 293 293 292 296 292 293 292 297 298 296 296 294 292 297 289 291 291 285 284 286 289 292 292 294 293 291 291 294 294 296 294 291 289 290 286 287 287 285 281 287 297 293 294 293 294 292 293 294 300 302 302 303 304 304 303 302
297 299 300 301 307 305 295 297 294 293 293 293 295 294 295 297 301 299 299 297 301 299 298 295 297 298 297 298 296 297 296 294 288 295 296 294 294 294 296 297 299 297 302 302 298 300 291 291 290 283 280 279 278 280 283 286 288 292 294 294 294 293 293 290 286 287 284 288 288 285 285 292 292 293 294 293 293 294 294 295 296 304 303 302 303 302 301 301
295 287 294 297 302 301 302 300 300 296 293 294 292 295 296 294 297 300 302 300 301 301 301 298 298 299 297 296 294 294 294 294 295 291 292 291 292 292 295 294 298 300 295 296 295 298 290 295 292 290 287 285 288 290 295 297 292 288 290 291 292 293 294 292 292 287 284 288 287 288 289 291 290 292 293 294 293 293 294 294 294 300 302 303 303 302 301 301
295 291 291 287 297 298 297 299 298 297 293 296 290 296 293 295 296 296 303 295 299 299 299 298 297 294 294 295 294 293 295 293 292 294 293 293 292 293 293 295 294 295 293 295 298 295 291 289 293 294 293 293 295 295 298 296 292 292 290 291 293 291 291 289 287 286 292 288 284 291 293 289 292 293 294 295 295 295 296 295 295 299 302 302 302 301 299 301
289 290 293 296 291 288 291 293 297 296 298 296 294 297 294 294 293 292 297 301 301 302 295 295 297 298 296 295 295 291 293 292 293 291 295 294 292 293 291 296 294 295 294 298 301 297 292 288 294 293 293 296 293 294 297 295 295 294 294 294 292 293 291 287 288 293 294 288 286 292 294 291 293 295 297 297 297 296 296 296 296 299 302 301 300 299 299 300
291 290 292 295 292 295 295 297 298 296 295 295 295 295 295 294 292 296 295 296 298 296 300 291 293 297 297 298 296 293 294 288 288 293 290 290 292 291 289 291 294 296 295 294 295 296 294 289 293 294 292 294 293 293 295 295 294 294 294 295 294 293 291 291 291 293 293 293 294 294 296 294 296 296 298 299 300 299 299 299 298 300 300 299 298 298 298 299
286 288 289 294 298 297 297 297 296 296 293 295 291 295 296 294 294 298 299 297 293 295 301 297 295 297 297 298 297 294 295 295 294 290 294 292 289 294 291 293 290 290 294 293 296 294 293 289 294 293 288 289 293 292 292 293 294 291 294 295 294 293 292 293 293 293 293 293 294 296 294 293 298 300 299 298 299 299 298 297 298 300 299 298 298 298 299 299
290 291 292 292 289 293 296 296 294 293 292 293 291 295 296 295 296 298 297 300 297 296 297 296 299 297 298 297 297 297 299 299 299 297 296 294 290 295 291 291 294 288 290 289 291 293 292 288 294 289 286 286 291 289 290 291 290 290 291 293 293 291 289 291 289 293 291 290 293 293 291 292 297 300 300 297 296 297 297 297 297 299 300 298 298 299 300 300
293 295 293 293 288 290 293 296 295 293 289 293 294 296 296 296 299 299 294 299 300 302 300 300 298 295 295 295 294 297 301 302 302 302 300 300 301 299 299 297 295 291 289 289 292 290 289 289 287 288 285 285 289 290 288 287 286 284 286 292 294 294 293 294 295 295 295 295 291 288 290 296 298 298 297 295 295 296 297 298 298 299 300 299 299 300 301 301
Wind_Speed
24 24 21 21 22 24 24 22 23 24 24 23 22 19 19 18 18 17 14 13 16 14 14 15 18 15 14 15 13 13 8 2 3 2 3 9 5 10 6 9 11 6 8 5 9 7 6 8 8 6 6 5 5 6 4 3 2 4 7 7 7 4 9 7 6 6 6 8 10 10 11 8 9 7 4 3 3 2 7 5 5 3 3 7 5 2 11 13
27 23 22 23 24 24 23 23 23 24 23 23 22 21 19 20 18 18 15 16 17 16 16 16 18 18 16 15 15 12 6 3 2 6 12 2 10 9 12 14 16 3 6 8 11 11 9 9 9 7 8 8 3 5 7 3 3 7 7 7 7 6 3 2 4 6 2 8 11 11 10 6 7 11 7 7 7 7 7 6 7 6 7 7 6 8 11 12
27 24 22 23 24 23 23 24 22 22 23 21 21 20 20 19 18 17 15 15 17 15 16 17 18 17 16 16 15 13 6 3 1 12 14 15 8 11 11 12 14 8 10 10 11 11 11 9 8 9 9 8 7 6 7 6 6 4 5 7 3 6 6 6 4 6 5 6 11 11 9 3 7 7 8 6 8 7 7 8 8 8 10 9 9 11 12 12
24 24 22 23 24 23 22 23 22 22 21 22 20 19 19 18 17 17 16 15 16 15 15 16 16 16 16 17 16 8 6 7 6 3 9 10 17 17 13 14 14 11 10 13 12 10 11 10 8 10 8 10 8 5 10 6 6 4 5 4 3 5 7 4 5 6 5 4 10 9 8 5 6 5 8 4 6 7 5 6 8 10 10 12 12 13 11 12
25 24 23 24 24 23 22 23 22 21 22 22 20 19 18 18 18 17 17 16 16 16 16 16 17 15 16 16 12 6 10 2 4 11 3 5 14 18 18 16 13 9 11 11 10 9 9 10 9 10 9 8 8 6 10 8 4 5 1 3 1 1 5 5 5 5 4 6 6 8 10 7 6 4 7 7 8 4 3 4 2 3 8 15 14 14 13 14
25 25 24 23 23 23 22 23 22 22 23 22 21 18 18 17 17 17 17 17 18 18 18 17 17 17 17 14 7 4 9 6 2 3 2 7 9 12 16 14 12 8 8 11 11 10 11 11 12 11 10 10 10 10 10 6 3 8 3 2 5 5 4 3 4 3 2 4 6 9 6 7 8 5 7 5 8 6 6 8 7 4 4 13 13 14 13 14
24 24 24 23 22 23 21 22 22 21 21 22 19 17 17 17 17 16 17 17 17 17 19 19 18 17 17 12 6 7 8 5 1 2 4 5 5 8 10 8 8 7 10 11 12 10 11 12 13 12 11 11 12 12 10 7 5 6 5 5 6 5 6 3 5 3 2 2 5 3 5 6 8 7 3 6 4 8 6 7 5 4 4 11 14 15 15 15
25 24 23 23 23 22 22 22 23 22 22 21 19 17 17 17 17 16 16 16 16 18 18 19 16 17 19 11 9 5 4 8 2 1 2 7 8 10 11 6 8 9 11 14 12 13 11 14 14 12 11 10 10 14 11 10 9 6 6 5 5 5 4 4 4 3 2 3 3 3 6 2 2 1 1 6 7 7 6 4 5 5 6 8 11 13 13 14
25 24 23 23 23 22 23 23 23 22 21 22 21 19 19 18 17 16 16 16 16 18 17 17 18 18 6 7 7 8 9 3 2 7 3 8 6 8 11 6 9 12 13 12 13 12 11 12 14 14 8 12 7 8 11 12 9 7 8 8 7 6 6 5 5 4 3 3 4 7 5 3 2 2 5 6 4 5 4 3 4 4 6 8 9 11 12 13
25 24 23 22 22 22 22 23 22 22 22 22 21 20 19 18 16 15 16 16 15 16 19 19 19 17 10 11 3 7 4 4 4 5 6 8 6 7 6 4 12 14 12 13 11 13 14 9 14 11 9 8 8 6 7 12 3 11 10 9 9 7 6 1 4 5 3 4 3 5 5 3 2 2 4 4 4 2 4 5 4 5 6 7 7 9 10 11
24 23 23 23 22 22 22 22 22 21 20 21 22 21 19 18 17 16 17 18 17 16 16 19 19 16 8 5 12 11 1 4 3 5 7 8 9 9 10 5 10 11 13 11 12 12 11 12 11 1 2 4 9 3 3 1 5 13 14 12 9 6 6 6 7 6 5 4 2 2 5 3 4 2 2 5 4 1 4 6 5 6 7 7 8 8 9 9
24 23 23 22 22 22 21 23 22 21 21 21 22 21 19 18 17 15 16 17 15 15 17 18 19 8 5 7 10 4 2 2 5 5 6 7 6 5 5 4 8 7 10 9 11 10 10 9 4 10 4 8 8 8 4 4 4 12 15 9 8 9 6 3 5 5 3 4 2 2 4 6 7 8 6 6 3 2 2 4 5 6 6 5 7 7 7 8
24 24 23 23 22 22 20 21 20 21 21 21 20 19 19 18 17 15 15 15 14 15 14 15 14 8 7 9 7 1 3 5 6 7 5 2 4 4 2 2 9 6 4 8 10 9 4 1 9 13 4 5 9 4 8 5 8 8 8 8 9 7 6 5 4 3 2 3 1 2 5 8 14 10 9 6 4 3 3 5 5 5 6 6 6 6 6 7
24 24 24 22 23 22 21 21 22 22 23 21 20 19 19 18 17 15 14 14 16 14 15 17 9 8 4 7 3 1 3 5 8 8 7 5 7 2 3 3 2 3 2 5 3 2 3 3 7 8 2 6 4 4 11 5 6 10 5 6 7 8 7 7 4 5 5 3 3 3 6 1 8 9 6 4 4 5 6 6 6 5 6 6 6 6 6 8
25 24 24 23 23 23 22 24 24 22 22 21 21 19 18 18 17 16 15 15 18 16 16 14 7 7 5 4 2 2 1 5 8 7 8 10 8 5 4 4 5 5 2 1 1 1 3 5 5 5 6 1 5 9 8 9 8 7 9 9 7 9 6 7 3 4 5 4 5 5 6 9 6 7 6 3 5 5 6 6 6 5 5 6 6 7 7 7
25 26 25 24 24 25 25 24 24 23 22 22 21 18 16 16 16 17 17 13 16 18 13 13 11 7 6 9 2 2 4 6 6 8 6 4 7 5 7 6 4 4 7 2 1 2 3 7 9 5 6 4 9 8 9 8 8 9 10 8 9 8 7 7 4 2 2 7 6 9 5 2 6 5 5 4 5 6 5 7 6 7 6 6 6 6 7 7
26 26 25 24 25 25 25 24 23 22 21 20 20 19 16 15 17 17 15 17 12 9 9 6 8 6 5 2 3 5 6 4 5 5 6 2 1 7 10 7 6 8 5 5 6 7 7 6 2 1 6 8 10 10 10 10 10 9 8 8 9 13 8 6 5 3 3 5 8 8 7 11 2 8 6 6 4 5 4 4 6 7 6 6 5 6 7 8
26 26 24 24 25 25 25 25 23 22 22 21 21 19 18 17 19 16 13 11 7 4 6 3 8 3 8 5 8 7 6 6 5 7 6 2 2 10 10 8 7 10 9 9 6 10 7 5 4 8 8 11 13 12 13 14 12 11 9 6 6 7 10 7 8 8 7 5 6 9 12 12 10 6 8 8 7 4 4 3 3 4 6 6 6 7 8 8
26 25 24 24 25 25 26 26 24 24 24 23 23 21 21 19 11 8 10 11 12 8 6 11 14 13 6 14 3 7 5 6 7 9 5 6 3 5 3 5 10 13 11 10 7 11 7 4 4 7 11 13 15 15 13 8 11 12 14 9 8 10 10 7 6 4 6 9 7 11 10 11 12 13 9 8 9 7 5 4 5 6 6 7 7 7 7 7
26 25 25 25 25 25 26 26 25 26 28 23 20 16 13 12 10 8 9 11 12 11 5 13 10 2 5 9 9 5 5 3 7 2 7 2 6 7 8 9 9 10 11 11 10 10 8 10 12 12 11 14 13 14 12 10 12 12 11 7 6 8 6 7 7 4 1 3 11 12 12 12 12 9 8 7 7 7 7 8 8 8 8 8 8 8 8 8
26 25 25 25 25 26 27 27 26 26 27 18 21 18 14 20 21 16 18 12 5 4 3 18 17 3 3 8 10 15 12 3 2 4 6 2 4 12 9 10 11 12 11 12 11 4 5 10 12 12 12 14 16 5 3 3 11 13 11 11 6 8 5 4 5 4 1 3 6 8 9 12 12 11 12 10 9 10 10 10 10 10 10 9 9 9 8 7
26 26 25 25 25 26 27 26 26 26 21 16 17 11 6 11 4 6 17 12 8 4 2 11 7 5 1 4 4 3 6 6 6 7 3 6 7 11 9 11 14 12 8 10 10 8 10 11 12 10 2 7 5 4 2 5 8 8 9 9 7 6 7 4 6 3 3 1 6 4 8 10 11 11 11 11 11 9 10 9 8 7 10 9 7 6 6 5
27 26 26 26 26 25 24 26 26 25 14 16 16 9 6 4 3 17 5 12 9 4 5 13 9 5 6 2 1 1 9 8 11 10 9 5 11 10 11 10 14 11 10 12 11 11 10 12 4 7 7 8 6 4 6 4 5 6 7 8 8 8 8 4 4 5 1 2 2 4 6 9 10 11 13 12 11 5 3 2 2 3 5 7 6 2 3 4
26 27 26 26 26 26 25 24 24 18 14 17 15 8 4 3 3 5 13 7 8 3 3 2 2 4 7 9 3 3 8 3 9 13 4 5 12 6 12 14 15 9 13 15 14 12 7 3 4 3 7 9 9 8 9 7 6 4 6 7 7 9 6 3 6 5 4 2 1 6 7 9 9 11 10 6 4 1 5 4 5 6 6 5 4 4 6 8
27 27 27 26 26 27 24 23 17 14 14 14 14 9 3 3 3 7 9 7 5 4 1 2 2 1 5 2 2 3 4 5 4 5 4 4 10 4 10 7 9 10 13 14 13 12 3 1 3 6 8 9 10 10 10 9 7 4 3 4 5 10 9 9 11 8 4 4 4 2 3 7 9 13 12 5 4 6 6 6 7 6 5 5 6 6 4 5
27 27 27 26 26 25 26 14 14 14 15 14 10 8 7 1 4 4 4 6 9 4 2 8 1 6 1 4 3 0 6 5 3 2 2 1 6 4 5 4 1 12 14 14 11 2 2 0 3 7 9 8 11 10 9 8 6 7 6 3 4 8 10 10 10 6 4 4 4 1 7 3 5 6 8 5 4 6 5 6 6 5 4 5 4 3 3 3
28 28 28 28 27 29 18 11 16 16 13 12 11 4 2 2 3 4 6 4 8 6 8 2 2 2 1 4 5 9 9 6 2 2 3 2 3 2 9 7 3 5 3 4 2 4 4 3 3 5 7 8 8 10 5 7 5 6 3 1 5 8 10 9 10 7 2 5 5 2 4 5 4 3 7 6 6 6 6 6 6 5 4 3 2 2 1 1
29 29 28 29 26 26 12 14 20 18 13 3 10 8 4 1 1 2 2 8 6 8 6 3 2 1 0 3 2 5 4 17 8 5 2 2 1 4 5 12 11 9 3 5 8 3 3 6 6 8 7 7 9 1 5 7 4 2 1 2 6 7 8 9 7 3 2 2 3 5 3 3 6 4 4 5 5 8 9 8 6 5 3 2 2 1 1 1
28 29 28 26 27 15 5 13 20 19 7 3 8 8 4 4 3 7 5 7 4 5 3 9 0 2 4 4 5 3 5 2 4 6 3 0 1 2 8 10 9 11 7 4 6 3 2 1 3 3 8 8 4 3 5 2 6 2 3 5 8 7 7 7 4 3 2 3 5 7 5 4 7 4 6 4 5 8 9 8 6 4 3 2 1 2 2 2
28 27 29 28 23 6 10 12 14 10 7 4 8 7 6 4 7 10 8 7 9 7 5 4 5 10 9 13 7 4 9 3 3 5 5 7 4 2 4 2 11 9 5 8 9 3 1 0 3 3 1 4 6 6 3 5 7 11 7 11 8 6 5 3 1 3 3 4 4 4 0 3 4 4 7 7 4 3 7 6 5 4 4 3 3 2 2 2
27 28 27 30 14 9 13 14 13 7 7 5 10 9 6 4 11 9 10 5 10 5 5 8 7 10 15 16 10 4 6 4 7 12 8 4 5 3 8 6 5 6 4 4 6 4 4 4 1 2 2 3 4 7 7 1 8 8 5 8 9 5 4 4 3 2 4 5 3 3 1 2 6 3 2 4 2 2 3 7 8 7 6 4 3 3 3 3
26 27 29 21 9 9 11 12 13 9 7 8 12 8 8 11 8 12 6 10 10 8 10 11 11 12 16 14 8 10 8 7 9 12 13 10 10 11 12 8 9 7 8 9 6 5 5 3 2 4 3 1 5 10 4 2 2 2 9 10 7 5 3 5 4 6 7 4 2 2 1 2 11 10 2 1 2 3 1 5 7 8 7 6 5 4 4 3
26 25 28 8 9 7 3 6 11 9 9 10 9 6 11 9 11 13 8 13 5 15 10 12 14 16 15 13 10 11 8 10 8 11 11 10 10 9 3 4 14 9 9 9 8 6 3 5 2 3 3 4 5 9 6 5 6 8 11 10 8 7 6 6 6 2 1 4 3 3 0 5 5 7 12 11 7 6 6 7 6 6 7 6 6 5 4 3
25 27 14 9 7 3 4 8 9 12 12 9 8 6 6 10 8 10 11 11 9 9 14 13 16 14 15 10 9 10 7 3 12 8 12 8 10 10 8 4 5 8 5 12 9 8 5 2 7 9 4 7 4 2 8 5 10 9 3 9 6 4 3 5 6 6 4 1 3 5 2 3 3 2 5 7 6 9 6 5 5 4 4 5 5 5 6 6
26 19 11 8 5 3 7 8 11 12 9 9 10 7 11 10 6 12 13 8 6 14 14 16 16 16 12 5 9 5 1 5 4 8 10 11 12 9 12 12 6 2 7 11 4 5 12 3 5 6 2 2 7 1 3 4 8 2 2 4 3 5 2 2 2 1 3 2 3 2 5 2 3 6 5 4 2 6 5 5 4 6 5 6 7 7 6 6
21 11 10 9 8 4 8 7 12 10 10 11 10 9 14 9 6 10 9 11 14 13 18 18 12 13 9 4 3 6 2 1 8 8 6 11 10 12 12 10 10 10 9 9 6 7 2 3 3 2 2 2 2 5 1 4 7 7 3 5 2 5 6 4 2 3 1 2 4 4 4 5 6 7 9 8 6 6 5 5 5 7 8 8 8 7 7 6
13 12 10 11 8 6 8 8 9 8 6 10 12 12 7 3 3 10 5 15 14 21 20 16 11 11 11 9 9 9 5 6 8 7 8 7 7 11 12 8 11 10 7 1 2 3 7 4 2 1 4 3 2 4 2 5 4 5 4 7 3 0 3 1 3 2 2 4 2 3 5 5 4 3 5 9 10 8 7 7 8 8 9 9 8 7 7 7
12 8 9 10 8 7 7 7 11 7 5 9 13 15 5 5 1 5 11 16 14 14 12 12 7 8 13 13 13 14 9 9 11 5 8 13 3 12 12 7 7 10 8 3 2 4 4 4 2 3 2 2 0 2 2 0 3 2 1 1 6 3 5 2 2 2 4 5 3 5 8 6 6 5 5 10 13 12 10 9 10 11 11 10 10 9 7 7
9 9 10 6 6 7 7 8 8 8 8 8 10 12 1 3 3 8 10 12 10 13 14 11 10 3 9 12 11 12 14 9 13 9 8 8 7 12 15 9 6 5 4 3 2 3 2 2 2 2 2 2 1 4 7 5 3 3 1 2 4 2 3 4 5 2 2 5 3 2 4 3 6 8 7 10 14 14 13 11 11 13 13 11 10 8 7 7
10 7 5 4 7 8 8 8 8 6 7 13 10 3 4 4 2 2 2 13 8 11 9 11 9 9 9 7 15 12 10 8 13 8 7 7 7 4 13 10 7 6 6 2 2 3 3 3 3 3 1 3 4 5 6 8 7 4 5 6 2 1 2 3 2 4 3 4 5 5 3 4 5 9 10 9 14 14 14 12 11 13 13 12 10 9 9 8
4 5 6 4 8 9 8 8 9 12 10 4 1 4 3 5 7 3 3 6 4 6 3 11 11 11 10 9 9 8 5 5 8 8 6 6 12 3 8 11 11 9 6 2 3 3 2 1 5 6 4 5 3 5 2 4 2 6 8 8 10 8 4 5 5 2 0 3 3 3 5 0 3 4 2 3 3 8 9 12 11 13 14 12 10 10 9 8
7 9 6 7 10 12 11 13 8 8 6 7 6 4 5 4 9 8 5 2 4 4 4 5 6 8 10 9 11 11 8 8 9 6 6 6 11 7 4 9 9 15 11 6 6 2 1 3 6 5 4 4 4 1 2 1 1 1 2 5 6 6 4 4 7 3 1 1 3 1 3 3 3 2 3 4 4 5 4 10 11 13 14 13 11 10 9 7
4 5 4 6 10 11 10 8 7 8 6 4 7 7 7 4 5 6 9 3 5 1 3 4 8 8 1 4 8 8 12 4 10 8 7 6 4 4 3 5 13 15 8 2 6 3 1 3 5 3 4 2 2 1 3 1 1 2 5 3 2 9 10 6 2 1 4 4 2 3 4 2 2 2 2 3 3 2 2 1 12 13 12 12 12 11 9 8
5 6 5 3 6 7 8 12 14 13 8 6 6 6 1 3 8 8 7 8 5 5 6 5 3 3 8 3 9 11 12 4 6 8 4 1 4 1 3 4 16 9 11 8 10 8 3 2 5 5 3 2 1 2 1 1 1 4 6 7 7 1 5 3 1 0 2 7 6 5 7 5 2 1 1 2 3 3 4 4 5 13 12 12 12 9 7 8
6 4 5 4 4 5 9 6 10 11 12 13 11 10 7 4 2 5 8 7 2 4 6 5 4 7 5 5 6 5 12 4 3 3 4 3 2 2 4 3 10 10 3 2 3 10 4 5 8 7 7 7 7 8 9 7 10 5 0 3 6 6 6 3 4 3 7 5 9 5 7 5 3 3 4 4 4 4 5 7 3 8 12 13 10 9 8 8
5 9 4 5 4 6 6 5 4 11 13 13 12 9 10 7 2 4 3 6 2 4 3 6 2 6 9 10 8 7 8 2 2 5 7 4 2 2 1 4 1 1 5 3 5 11 2 2 8 10 10 10 9 9 7 7 6 7 10 13 11 12 11 7 1 4 8 3 6 9 10 6 2 5 5 6 6 9 9 7 7 6 10 10 9 9 8 8
2 3 9 11 5 7 7 6 10 13 12 16 10 11 13 11 9 4 4 4 4 3 3 2 6 9 8 14 11 11 12 6 1 6 7 7 3 2 4 2 4 5 5 3 6 5 1 3 6 8 9 9 7 6 7 13 11 15 16 13 15 12 10 8 9 12 11 6 8 9 11 10 10 7 7 7 7 7 8 8 9 8 10 10 10 9 9 8
2 1 3 2 3 17 16 13 14 15 12 15 8 11 14 14 12 9 2 3 6 3 5 2 3 7 15 16 12 8 11 6 4 6 6 3 6 2 4 2 2 3 3 3 1 3 5 5 9 9 10 5 6 4 7 9 9 8 13 10 12 13 12 11 12 14 8 8 12 12 11 13 14 10 7 9 10 11 11 12 12 11 9 8 9 9 9 9
3 2 1 2 0 2 9 10 16 15 15 18 7 14 14 16 16 11 8 6 5 5 5 7 12 10 13 12 12 8 13 8 5 4 3 4 8 6 3 3 1 3 1 3 4 1 3 4 6 8 8 6 4 3 0 7 7 7 8 9 11 12 13 15 15 15 16 13 14 12 5 14 12 10 11 5 5 5 5 6 8 9 9 9 10 10 10 10
1 2 2 1 3 10 14 12 13 13 14 15 7 12 12 15 15 10 8 7 8 10 3 3 12 9 10 11 11 11 14 15 14 8 5 9 2 3 5 4 6 3 2 3 4 2 3 2 10 4 6 8 4 4 2 2 3 8 7 7 10 11 13 13 14 16 16 17 16 10 3 8 6 7 4 6 6 6 6 6 9 10 9 11 12 12 12 11
1 2 3 5 6 5 11 15 15 17 16 14 10 11 8 15 13 12 6 5 5 10 9 10 13 9 5 7 4 4 9 5 6 12 17 16 12 12 10 3 9 9 4 3 2 2 3 1 3 4 6 5 4 6 4 2 2 3 2 6 10 12 12 12 15 16 15 15 15 13 8 12 10 8 6 5 6 7 8 9 10 10 10 11 13 13 12 12
2 2 2 3 3 2 9 11 14 12 13 13 11 12 10 15 12 14 7 2 5 4 8 11 10 9 4 7 7 3 5 7 6 7 8 7 7 6 5 6 14 15 9 9 4 5 6 4 3 4 5 10 0 2 7 4 2 4 8 12 16 17 16 16 14 13 15 15 14 11 14 15 2 10 8 4 5 7 8 9 10 11 13 14 14 13 12 11
Wind_Direction
197 189 185 185 190 193 190 185 183 179 180 178 175 166 161 158 162 163 156 153 154 149 150 146 147 150 161 140 139 130 125 105 97 157 216 239 204 216 224 234 271 232 190 240 260 248 234 221 218 202 221 199 198 225 134 196 288 239 218 212 200 200 199 149 194 170 82 139 137 162 177 175 149 170 143 181 183 125 146 167 123 100 121 71 104 123 122 132
198 189 183 185 188 189 187 182 183 182 180 176 173 170 161 161 161 160 148 152 155 154 149 147 143 151 149 148 137 130 125 96 153 226 230 151 170 164 222 250 259 194 164 228 237 234 233 209 214 198 207 211 131 198 152 177 162 215 211 214 206 208 79 105 106 77 215 144 150 161 183 210 166 161 160 197 176 170 162 176 163 167 148 120 122 142 142 149
199 190 182 183 184 183 180 180 181 180 179 177 172 170 166 163 161 158 148 152 157 148 152 148 140 144 145 137 139 151 142 96 317 243 247 226 197 181 206 235 250 187 192 227 231 239 228 216 204 203 210 217 182 185 204 167 190 231 261 192 196 86 93 74 86 92 38 108 144 154 170 223 122 162 143 228 166 183 191 168 181 193 169 161 140 153 151 165
196 189 182 180 182 180 176 177 179 179 179 179 174 171 167 163 162 161 152 151 158 149 149 149 141 138 140 142 146 163 93 49 266 252 232 203 204 214 200 223 227 189 210 240 259 247 232 238 212 205 214 232 170 226 187 158 209 140 229 219 117 140 136 99 76 80 70 353 149 155 146 178 159 143 176 192 167 198 207 183 180 195 181 160 153 158 160 171
190 186 182 180 181 178 173 174 178 181 179 176 170 168 164 162 161 161 150 151 153 152 149 148 142 137 139 143 147 121 91 38 242 219 155 205 202 202 198 207 208 193 208 234 249 249 244 232 207 209 220 216 181 183 208 159 252 185 200 42 34 99 124 92 85 68 57 347 141 139 160 179 126 166 199 204 218 147 174 133 106 64 176 151 155 161 168 174
190 182 178 176 178 178 171 171 176 178 177 177 167 164 161 159 160 158 148 149 156 153 152 148 141 140 137 143 141 131 140 205 194 207 52 213 206 197 197 195 189 183 201 231 236 227 223 229 210 207 210 217 179 195 182 188 167 198 122 116 45 12 81 85 110 69 6 135 147 165 154 116 173 177 199 236 246 77 56 63 56 73 86 151 150 155 170 178
184 181 175 172 174 178 171 165 172 176 174 174 162 161 158 155 157 155 147 146 152 152 154 150 144 138 132 127 107 132 201 271 51 236 297 204 170 183 172 164 150 178 200 218 224 218 211 218 209 204 211 208 181 201 167 179 194 268 149 130 69 24 72 56 76 106 72 163 149 95 107 181 177 192 144 233 238 96 85 68 69 91 109 143 154 166 173 183
180 178 173 168 172 173 172 166 170 173 174 169 159 156 149 150 149 155 146 149 156 156 151 146 138 136 132 126 114 172 215 254 179 293 318 93 96 122 126 123 163 186 198 210 210 215 201 216 204 204 215 205 176 200 154 180 201 215 118 131 101 77 75 79 97 120 118 63 58 126 174 143 194 348 131 223 232 137 111 98 103 112 147 163 166 174 179 186
177 174 171 169 170 169 167 164 167 168 170 169 159 150 148 145 148 150 151 149 152 149 141 142 146 140 145 129 146 139 226 226 56 134 131 94 90 112 128 143 187 187 203 211 212 212 208 210 213 211 197 209 165 190 170 182 199 214 124 122 121 102 98 103 114 125 127 117 152 167 173 101 53 346 264 232 138 91 110 142 138 147 155 177 181 181 183 188
174 172 170 168 168 166 163 159 158 163 167 164 165 149 147 144 144 146 146 150 144 144 157 145 146 150 156 131 199 200 203 108 113 127 128 118 110 116 165 163 181 197 202 208 213 214 213 210 215 200 308 214 182 182 181 213 143 120 128 120 114 111 114 115 125 125 121 126 164 188 165 146 89 264 210 143 96 72 161 171 160 200 199 185 189 190 193 193
171 169 168 169 167 164 159 155 155 158 162 160 158 153 144 142 142 146 151 148 149 156 150 153 147 151 159 208 171 204 73 157 117 118 136 139 140 146 180 174 195 201 203 204 216 211 218 235 212 202 279 203 182 142 220 128 122 127 121 109 102 109 101 111 110 125 160 125 224 272 143 104 137 175 285 123 73 120 215 192 178 200 214 201 197 192 194 199
168 166 167 167 163 161 156 154 152 153 159 163 157 151 142 141 143 149 153 146 153 158 154 150 155 158 139 218 217 204 222 70 126 130 139 166 155 149 151 170 207 214 198 204 211 212 220 231 226 199 213 144 190 125 179 181 186 142 138 128 128 138 120 148 130 133 263 114 224 330 170 203 185 232 182 120 116 140 190 192 190 197 206 195 194 191 191 198
166 164 164 163 162 157 150 146 147 154 157 156 148 141 143 144 144 146 151 147 159 160 150 156 151 175 176 210 234 89 194 130 121 132 143 112 89 72 92 180 206 241 259 238 215 206 180 200 222 219 274 262 155 203 120 154 151 160 187 139 151 166 163 140 122 141 199 97 198 240 235 226 204 193 119 130 161 155 197 209 189 194 194 199 194 198 198 193
162 160 161 161 158 153 147 144 151 156 150 147 139 141 144 142 143 149 149 154 161 156 155 156 163 176 235 230 97 205 128 135 139 139 150 154 140 80 153 163 193 230 282 275 2 32 187 220 242 230 2 290 170 149 144 128 168 180 130 163 184 175 180 142 162 145 171 131 180 238 249 289 118 135 119 132 168 190 209 212 201 196 188 188 193 201 203 198
157 156 158 157 152 149 147 151 151 149 144 135 139 141 141 146 149 151 156 152 160 156 154 154 180 155 234 230 92 111 141 144 155 163 154 163 155 135 165 176 184 200 179 172 240 173 189 201 203 192 215 50 129 175 145 160 188 169 162 195 198 205 124 133 128 176 200 151 208 205 250 259 128 129 112 136 185 202 223 210 195 200 198 191 195 203 208 209
154 157 156 151 146 144 147 146 144 142 139 137 137 128 134 141 151 156 154 154 158 149 147 156 184 228 234 216 140 135 174 179 179 143 159 190 171 173 156 154 152 159 162 116 152 181 188 193 209 214 126 173 191 178 159 151 186 186 196 172 187 200 151 152 164 135 14 139 187 213 259 231 136 120 144 152 161 179 209 224 216 210 203 202 204 206 208 211
155 157 154 148 144 143 142 140 137 141 137 134 126 127 134 140 147 148 150 148 143 134 165 161 183 204 238 53 135 193 180 145 79 122 147 220 325 141 131 132 171 166 150 130 179 172 164 182 93 197 206 193 197 182 167 184 179 192 206 204 186 192 170 194 104 199 153 216 189 212 237 247 88 136 154 164 171 159 191 216 227 219 215 210 209 208 208 210
153 156 152 147 144 142 139 136 138 136 132 127 128 131 133 138 138 134 125 128 134 170 204 289 170 187 255 118 197 195 126 115 163 138 133 117 261 160 152 174 158 154 145 146 176 182 178 176 197 196 186 205 197 194 194 190 181 175 178 184 148 201 208 202 175 153 186 202 235 197 228 243 246 163 164 175 177 186 202 218 229 218 209 211 212 215 216 215
152 153 150 146 144 141 137 137 138 132 130 127 124 126 130 129 132 136 141 154 147 149 191 176 181 192 202 178 104 91 105 114 98 129 153 161 210 214 212 192 173 154 172 173 174 183 183 172 209 202 196 200 199 201 204 187 174 172 177 190 178 184 189 203 93 122 197 185 212 223 227 236 236 241 219 181 182 206 232 233 235 237 236 234 227 222 218 217
151 151 149 146 143 140 138 138 138 137 135 138 137 140 140 140 149 154 172 191 194 164 342 166 191 359 49 139 125 75 111 180 122 160 148 178 147 184 185 182 168 187 169 193 155 198 166 185 194 201 200 199 202 205 209 217 178 174 186 195 197 183 169 88 89 87 272 218 220 224 240 252 256 247 242 232 181 210 227 233 232 234 235 234 233 230 228 222
150 150 148 145 143 142 140 140 141 142 148 150 157 156 163 170 156 172 172 190 168 17 349 160 185 194 27 122 129 145 126 125 152 142 159 112 237 169 172 179 175 195 193 179 166 110 220 202 205 205 202 197 201 165 103 193 186 182 182 193 185 185 177 87 113 114 104 242 220 219 248 256 258 257 254 247 235 233 234 236 232 232 231 230 232 235 225 228
150 150 147 145 145 142 143 142 143 147 156 163 170 178 162 175 342 91 137 147 93 27 46 150 159 75 60 115 113 28 135 121 134 149 135 180 194 194 165 194 180 192 168 174 150 158 199 211 202 193 121 144 106 122 162 170 176 174 185 189 191 166 95 119 89 89 127 189 240 146 245 255 251 252 248 240 233 234 236 236 238 238 230 228 224 224 218 205
150 149 147 146 145 143 140 144 146 150 164 174 186 217 136 31 311 129 148 106 98 1 99 150 174 107 105 107 218 163 155 151 160 169 171 202 180 226 157 200 188 180 154 176 178 173 190 213 168 119 158 145 144 159 188 169 172 177 185 187 205 145 174 183 146 146 138 251 336 19 288 268 264 257 252 242 234 225 104 91 230 237 243 234 232 232 223 229
149 147 146 145 145 141 138 141 145 158 182 186 194 203 38 313 328 192 136 137 128 92 10 102 209 138 145 149 174 177 171 133 144 168 127 198 185 183 176 194 185 172 183 191 194 190 187 71 352 181 149 176 172 181 192 188 187 203 204 193 189 148 167 351 140 138 113 222 319 299 282 267 246 245 240 204 82 182 232 224 232 225 224 245 281 281 249 252
147 146 146 144 142 138 137 139 157 176 171 186 215 214 275 329 316 329 146 97 97 94 317 295 213 129 150 77 125 190 103 78 29 106 123 226 168 145 185 189 197 191 190 194 198 199 140 302 304 167 175 178 172 183 197 191 195 167 257 268 191 166 120 108 121 136 182 215 185 228 265 260 226 220 230 157 164 192 183 207 222 205 188 189 218 222 197 211
147 147 146 143 141 135 136 150 167 164 177 191 198 229 243 207 305 319 167 123 157 129 110 179 303 169 148 172 87 292 145 145 359 40 106 244 328 231 118 188 210 188 187 185 204 202 63 132 263 156 168 183 188 199 191 216 197 176 175 114 123 158 133 131 149 168 190 233 138 229 226 260 118 212 205 183 199 194 155 208 202 191 201 194 203 194 202 207
149 148 145 146 145 140 153 168 157 158 167 211 222 197 203 244 319 316 159 125 186 153 162 51 230 123 300 126 151 136 175 166 151 124 164 38 224 357 196 160 147 25 102 133 33 203 137 125 92 171 145 168 180 205 163 215 210 191 8 167 126 141 142 156 162 201 60 72 85 244 249 267 276 204 143 144 185 204 202 195 196 185 192 196 189 175 184 209
150 148 147 149 151 159 156 148 156 172 172 61 178 190 128 142 226 280 235 133 206 135 175 172 307 315 298 156 3 198 358 130 136 183 32 107 292 173 274 176 184 157 135 171 200 66 165 146 165 154 175 175 196 206 115 197 253 69 342 281 154 164 159 160 180 174 58 224 202 176 192 243 242 220 126 155 208 211 214 203 188 179 168 163 170 110 131 159
150 150 147 148 151 184 178 156 164 169 171 113 145 149 112 121 237 186 172 190 110 119 330 124 267 163 119 158 134 60 150 30 193 117 139 147 326 278 216 180 164 106 55 26 212 112 46 148 143 179 169 185 70 42 8 52 200 173 191 87 81 87 121 164 175 171 174 206 239 168 187 237 262 207 192 176 245 223 206 189 179 166 148 144 129 102 115 115
151 149 148 148 159 160 144 152 171 163 116 126 129 119 130 178 156 193 169 223 133 156 160 105 198 172 166 153 149 161 162 103 68 123 151 176 147 221 18 325 134 128 113 64 68 32 15 228 245 20 224 46 105 61 25 40 77 141 165 113 106 110 120 101 106 177 180 233 219 72 295 301 289 216 211 191 193 250 173 155 147 143 145 129 97 119 120 111
150 150 149 157 164 158 145 156 172 145 122 140 130 137 162 173 182 174 187 158 141 97 119 157 146 150 168 163 156 177 155 111 142 144 134 149 125 122 144 136 125 118 106 109 70 105 109 114 187 64 279 173 117 83 38 64 132 151 148 138 121 104 141 163 167 212 222 232 81 337 93 279 222 232 205 52 58 24 140 171 165 160 148 129 129 112 94 100
148 149 151 161 146 155 161 171 154 130 140 148 139 152 176 161 196 204 171 133 178 171 175 160 159 169 173 173 140 160 144 136 161 166 160 168 161 169 182 171 171 152 188 180 157 132 118 115 76 65 295 242 166 100 59 78 190 190 152 157 161 159 163 188 177 200 216 236 102 82 244 228 238 247 60 117 124 122 91 147 157 149 133 132 114 97 99 94
148 147 157 147 119 181 39 104 119 133 140 157 155 174 176 171 188 194 149 166 174 155 174 163 164 167 169 161 157 145 146 165 173 183 158 170 170 182 169 233 181 182 182 178 130 163 93 120 149 97 184 241 230 154 141 168 203 183 176 175 185 174 184 204 192 216 217 73 241 115 59 258 313 260 250 239 171 141 109 78 63 103 124 121 114 112 111 103
148 149 157 150 157 97 123 143 130 141 146 161 161 163 205 188 204 191 151 182 139 153 144 155 150 159 164 176 149 150 126 40 171 159 168 159 182 179 193 248 220 194 223 149 167 176 157 203 202 168 164 168 228 278 170 166 173 194 186 192 199 188 178 192 188 192 206 141 114 239 193 232 178 154 47 26 90 112 88 86 88 78 91 89 98 111 114 118
146 150 143 141 125 75 149 149 140 154 148 154 160 187 182 200 174 168 160 157 132 147 142 143 148 151 168 144 147 183 329 143 233 155 175 168 187 189 185 190 204 280 162 157 170 179 194 147 60 16 348 347 194 329 327 169 173 170 330 15 252 216 1 227 33 325 122 150 145 170 230 295 264 114 110 108 86 108 107 114 129 131 131 125 133 132 131 125
144 152 145 158 158 133 158 153 153 166 161 162 164 189 206 190 179 163 172 134 150 145 136 143 146 156 159 110 175 186 265 118 180 166 188 191 188 192 185 186 184 197 176 186 138 181 107 153 20 100 43 81 27 344 325 299 193 180 175 207 168 20 107 110 130 87 347 328 248 143 245 245 258 241 173 152 145 154 147 143 159 153 147 154 145 142 139 132
157 143 158 162 154 146 160 161 161 169 190 181 176 195 202 122 340 159 119 151 158 140 147 146 179 160 168 167 174 188 159 120 166 179 180 184 209 205 184 186 176 188 231 162 128 311 188 112 58 344 147 60 25 350 0 48 325 105 209 178 119 61 8 192 226 123 233 233 230 136 213 241 160 233 118 145 172 172 176 167 170 155 158 161 153 151 143 142
140 144 127 152 138 146 153 162 155 169 195 190 198 196 22 170 319 99 134 114 138 152 152 161 144 178 173 167 180 170 170 172 176 205 182 173 234 179 188 169 159 186 189 351 198 178 118 104 99 355 60 57 87 242 128 142 34 312 138 51 187 183 211 187 236 200 203 222 244 195 218 251 227 206 142 176 180 182 181 173 162 160 170 164 160 152 140 122
129 132 140 140 136 149 154 162 167 157 178 199 205 200 91 55 99 134 147 135 144 158 167 176 148 228 170 180 160 165 166 188 157 185 164 185 213 172 190 165 175 173 131 126 161 107 336 132 105 42 70 117 193 210 197 171 176 51 202 180 33 337 241 176 201 289 222 240 218 221 149 241 193 230 177 183 188 184 179 168 173 168 175 166 162 153 143 150
141 136 139 135 151 153 165 174 148 173 191 202 189 193 115 122 168 147 7 147 158 172 181 153 169 143 178 172 154 162 183 175 159 184 206 158 202 142 200 171 150 161 122 51 83 177 150 322 134 118 332 179 176 209 212 175 167 159 181 175 192 205 11 343 231 218 220 235 230 246 229 235 203 197 209 190 191 187 174 169 168 170 173 166 160 151 158 159
154 108 117 153 162 165 171 155 155 184 196 215 218 121 186 143 153 150 94 11 75 358 204 174 152 166 160 139 163 142 133 148 171 177 189 155 195 188 221 191 152 143 121 104 119 192 123 291 130 135 145 206 166 33 4 10 243 196 187 192 190 163 165 181 214 84 34 220 240 215 239 65 84 2 195 83 149 181 164 160 165 167 167 161 154 160 164 156
145 135 151 174 173 184 169 153 190 190 201 191 173 144 150 122 140 151 131 40 33 122 334 121 137 153 154 169 154 167 157 169 176 176 206 185 197 238 146 174 148 144 155 171 169 29 106 87 112 154 180 175 55 61 32 174 159 295 318 216 196 202 198 205 227 183 178 225 30 343 354 251 66 39 11 68 69 39 111 162 158 165 164 158 157 160 157 148
126 89 67 149 190 192 176 164 164 179 199 158 78 61 110 130 133 156 153 176 154 304 105 169 173 141 192 132 158 154 160 161 171 199 177 204 178 174 325 186 140 159 149 88 68 199 42 116 100 75 52 342 184 162 174 175 293 265 239 251 253 200 204 224 265 97 181 127 216 220 231 250 92 48 30 78 68 36 327 263 160 163 157 155 157 159 148 139
99 117 99 21 188 213 198 173 177 191 179 114 155 110 0 141 147 153 180 176 162 166 165 133 98 237 157 120 148 172 169 144 222 187 189 117 198 32 297 153 154 166 171 177 174 187 169 185 121 133 128 133 262 167 150 130 192 227 222 198 216 305 68 90 126 304 267 183 204 203 240 250 143 152 149 124 130 152 181 246 185 155 156 157 160 154 145 138
118 62 61 99 182 224 200 203 187 172 166 163 147 154 148 111 40 167 167 156 99 139 143 154 134 146 110 147 150 137 182 179 140 244 58 199 108 4 6 174 175 184 54 336 35 156 188 154 158 159 169 178 187 201 203 197 209 204 201 65 179 199 171 136 232 183 244 181 194 221 247 252 92 179 156 132 156 168 184 187 250 172 161 161 157 154 149 146
172 133 147 105 197 227 267 349 234 171 163 162 154 165 154 132 134 24 121 112 23 106 28 117 60 125 129 146 150 158 175 345 171 161 167 159 126 28 359 338 166 143 2 63 142 148 147 127 193 187 185 198 197 207 199 133 106 183 200 198 199 203 201 206 346 225 221 195 203 215 233 245 169 193 183 172 181 183 175 180 191 171 166 158 149 151 153 156
5 136 152 150 110 238 213 209 188 173 177 165 165 162 169 153 136 139 326 166 197 148 110 89 153 152 170 168 167 178 183 129 348 148 175 122 41 80 47 64 89 45 338 81 168 109 119 177 203 218 222 223 226 201 129 162 175 198 202 202 204 194 191 195 203 223 214 223 244 226 225 240 227 185 193 189 186 192 181 179 184 187 170 159 153 145 146 149
134 0 20 308 178 182 188 206 197 180 169 172 169 157 165 145 160 156 122 8 142 199 147 52 218 197 168 179 159 172 171 149 133 150 108 78 107 128 83 27 116 1 340 125 275 165 164 206 191 207 222 221 54 73 160 180 200 199 208 190 178 180 185 190 219 236 220 214 237 236 216 228 238 221 199 192 180 191 189 184 190 184 158 131 137 148 159 160
30 85 17 336 86 143 194 155 179 174 169 181 157 177 167 160 170 163 157 143 160 198 224 170 188 190 182 172 165 164 160 151 210 155 173 152 152 139 114 74 304 95 52 119 138 295 163 229 174 188 219 205 108 109 318 200 201 215 206 193 185 177 188 198 216 221 219 228 229 246 163 223 232 226 221 191 148 157 131 133 154 164 165 151 154 162 172 174
34 138 129 343 16 147 168 160 171 169 180 178 147 188 175 169 162 136 141 153 160 191 194 210 173 168 177 179 179 183 183 195 177 161 168 132 106 215 164 169 138 53 345 148 148 294 209 195 156 156 214 226 154 105 71 268 221 218 214 197 173 178 196 207 220 229 228 238 243 246 273 264 236 227 204 80 90 97 114 150 174 180 157 161 171 179 181 178
24 313 326 136 113 131 157 172 175 181 185 183 187 170 183 178 167 147 109 11 187 169 172 185 141 131 150 172 193 201 182 178 171 173 164 159 173 189 163 206 144 142 161 131 165 41 184 285 14 128 210 220 160 156 169 93 10 305 190 170 179 178 198 206 218 221 217 224 234 240 258 252 236 176 95 104 114 157 173 179 181 185 180 178 187 187 182 177
297 225 206 290 107 322 163 166 177 174 196 189 181 165 176 180 151 135 114 55 32 80 160 131 131 123 131 162 186 152 94 72 59 108 142 16 48 69 33 150 163 157 167 176 165 162 180 141 157 173 205 224 51 153 123 108 49 283 230 202 198 201 203 208 216 221 217 214 224 221 233 242 186 160 163 158 178 185 198 187 189 192 187 185 189 188 183 172